STARLINK-1286, 45417

Orbit data source: Space-Track

STARLINK-1286, 45417 is a payload satellite owned by SpaceX/Seattle (US) in LEO that was launched on Wed, 18 Mar 2020 UTC via an FALCON 9 launch vehicle from the Air Force Eastern Test Range (AFETR). Payload-class satellites include a variety of spacecraft equipped with specific instruments for various scientific and technological missions. These include communications satellites like Starlink; space stations such as the ISS; scientific satellites like the Hubble; Earth observation satellites from companies like Planet Labs, Umbra, and HawkEye 360; GPS; miniature CubeSats for education and research; and military/defense satellites.

Loading next visibility...
Identifier
45417, 2020-019BK
Orbit
LEO
Country
Flag of USUS
Related business
Manufacturer
SpaceX/Seattle
Mission
Operational Commercial Communications
Bus & Motor
STARLINK, Unknown motor
Mass
260 kg wet, ~248 kg dry
Launch date (UTC)
2020-03-18 (6 years ago)
Launch vehicle
FALCON 9
Launch site
Air Force Eastern Test Range (AFETR)
Object type
Payload
Rocket body
Debris
Shape & HBR
Box + 1 Pan, 10.1 m
Radar Cross Section
13.562 m², Large (>1 m²)

Expand to show TLE details & history
Last TLE update: 19 hours ago

TLE from 19 hours ago
0 STARLINK-1286
1 45417U 20019BK  25288.00002315  .00065467  00000-0  41127-2 0  9994
2 45417  53.0540 100.6247 0002189  60.8447 159.6693 15.08665124  5696
Epoch: 2025-10-15T00:00Z
TLE epoch observation values (Epoch: 2025-10-15T00:00:02.000Z)
Latitude
-31.48926°
Longitude
-75.89577°
Altitude
551.41 km
Speed
7.585 km/s
True Right ascension
20h 31m 34s
True Declination
-31° 19' 54"
Sunlit
Object was in daylight at epoch
Visualization orbit readout
Latitude
Unknown
Longitude
Unknown
Altitude
Unknown
Speed
Unknown
Apparent Right ascension
Unknown
Apparent Declination
Unknown
Sunlit
N/A
Visualization observer readout
Local Sidereal Time
13:33:54
Azimuth
Unknown
Elevation
Unknown
Doppler factor
Unknown
Orbital elements
Apogee altitude
542.064 km
Perigee altitude
539.035 km
Semi-major axis
6,918.686 km
Eccentricity
0.00022
Inclination
53.054°
RAAN
100.6247°
Arg. of periapsis
60.8447°
True anomaly
159.67801°
Mean anomaly
159.6693°
Eccentric anomaly
159.67366°
Mean motion
3.77144 °/min
Orbital period
95.45 mins
BSTAR
0.0041127
Loading maneuver chart data...
Computing Atmospheric mass density...
Loading historical data...
Loading historical data...
Loading historical data...
Loading historical data...
Loading historical data...
Loading historical data...
Loading historical data...

Documentation

Showing up to 5 results
|